User: anonymous   Login
Location: Unspecified
(0.0000°N, 0.0000°E)
Time: 08:46:32
(UTC+00:00)
Language:

Freja - Orbit

View from above orbital plane
View from above orbital plane
View from above satellite
View from above satellite

Ground track
Ground track

The orbit data is extracted from the following two-line orbital elements,

1 22161U 92064A   19345.82467901 +.00000039 +00000-0 +48203-4 0  9995
2 22161 062.9776 252.6675 0825210 037.1356 328.3921 13.30367087317183
Epoch (UTC): 11 December 2019 19:47:32
Eccentricity: 0.0825210
inclination: 62.9776°
perigee height: 524 km
apogee height: 1766 km
right ascension of ascending node: 252.6675°
argument of perigee: 37.1356°
revolutions per day: 13.30367087
mean anomaly at epoch: 328.3921°
orbit number at epoch: 31718

The dashed part of the orbit path shows where the satellite is in the earth's shadow,  

DLR